Regional Weather Roundup
Issued by NWS

Home | Current Version | Previous Version | Text Only | Print | Product List | Glossary Off
Versions: 1 2 3 4 5 6 7 8 9 10 11 12 13 14 15 16 17 18 19 20 21 22 23 24 25 26 27 28 29 30 31 32 33 34 35 36 37 38 39 40 41 42 43 44 45 46 47 48 49 50

000
ASUS45 KBOU 021007
RWRCO

WEATHER ROUNDUP FOR COLORADO
NATIONAL WEATHER SERVICE DENVER/BOULDER CO
300 AM MST MON MAR 02 2015

NOTE: "FAIR" INDICATES FEW OR NO CLOUDS BELOW 12000 FEET WITH NO
SIGNIFICANT WEATHER AND/OR OBSTRUCTIONS TO VISIBILITY.

COZ001>005-013-030-031-021100-
...NORTHWEST COLORADO...

CITY           SKY/WX    TMP DP  RH WIND       PRES   REMARKS
CRAIG          LGT SNOW  31  29  92 E7        29.94F VSB 1   WCI  24
HAYDEN         CLOUDY    28  25  86 SE8       29.93F WCI  20
MEEKER         LGT SNOW  31  28  89 CALM      29.92F FOG
MOUNT WERNER   NOT AVBL
STEAMBOAT SPGS CLOUDY    27  26  96 CALM      29.94F
WALDEN         CLOUDY    27  25  93 CALM      29.94F
$$

COZ006>008-011-021100-
...WEST CENTRAL VALLEYS...

CITY           SKY/WX    TMP DP  RH WIND       PRES   REMARKS
GRAND JUNCTION CLOUDY    34  33  96 E8        29.92F WCI  27
MONTROSE       CLOUDY    33  32  96 VRB5      29.98F WCI  29
EAGLE          CLOUDY    32  30  93 CALM      29.99F
RIFLE          SNOW      32  31  96 CALM      29.96F VSB 1/4
DELTA          CLOUDY    37  36  96 E5        29.96F
NUCLA          FOG       34  32  93 CALM      30.00F VSB 1/2
$$

COZ017>023-064>068-021100-
...SOUTHWEST COLORADO...

CITY           SKY/WX    TMP DP  RH WIND       PRES   REMARKS
DURANGO        CLOUDY    33  32  96 NE3       30.04F FOG
CORTEZ         CLOUDY    39  36  89 NW5       29.99F
PAGOSA SPRINGS CLOUDY    35  35 100 CALM      30.08F
TELLURIDE      MOCLDY    37  29  71 S17G30    30.01F
WOLF CREEK PAS CLOUDY    25  25 100 SW21G41   30.12F WCI  10
$$

COZ009-010-012-014-032>034-037-058>063-021100-
...CENTRAL COLORADO...

CITY           SKY/WX    TMP DP  RH WIND       PRES   REMARKS
ASPEN          LGT SNOW  29  28  96 S6        29.94F FOG     WCI  23
BUENA VISTA    LGT SNOW  19  17  89 CALM      30.04F
COPPER MTN     LGT SNOW  27  21  80 S22       30.00F WCI  12
BERTHOUD PASS  LGT SNOW  19  12  73 SW16G22   30.01F WCI   5
COTTONWOOD PAS CLOUDY    27  23  86 CALM      30.00F
GUNNISON       CLOUDY    27  23  86 CALM      30.06F
KREMMLING      LGT SNOW  30  28  93 CALM      29.98F
LEADVILLE      LGT SNOW  20  18  92 CALM      29.99F FOG
SALIDA         CLOUDY    21  18  87 SE3       30.13F
SUNLIGHT       LGT SNOW  30  28  93 CALM        N/A
WILKERSON PASS LGT SNOW  25  23  93 SW8G18    30.03F WCI  16
$$

COZ069>075-021100-
...SAN LUIS VALLEY/SANGRE DE CRISTO MOUNTAINS...

CITY           SKY/WX    TMP DP  RH WIND       PRES   REMARKS
ALAMOSA        CLEAR     29  26  89 S10       30.04F WCI  20
LA VETA PASS   MOCLDY    28  28 100 S15G32    30.08F WCI  17
SAGUACHE       CLOUDY    32  32 100 CALM      30.05F
$$

COZ035-036-038>040-021100-
...NORTHERN COLORADO FRONT RANGE...

CITY           SKY/WX    TMP DP  RH WIND       PRES   REMARKS
DENVER INTL AP PTCLDY    12   9  87 S10       30.05F WCI  -1
DMNS CITY PARK   N/A     22  16  79 W3        30.05F
AURORA         PTCLDY    15  13  93 S5        30.05F WCI   8
FRONT RANGE AP NOT AVBL
ERIE MUNI ARPT CLOUDY    23  20  88 CALM      30.08F
BOULDER MUN AP PTCLDY    19  18  93 W3        30.07F FOG
CENTENNIAL     PTCLDY    17  14  88 CALM      30.04F FOG
BROOMFIELD     CLOUDY    21  19  93 NW7       30.06F FOG     WCI  13
FORT COLLINS   PTCLDY    21  18  86 CALM      30.10F
LONGMONT       CLOUDY    24  20  85 N5        30.11F WCI  18
$$

COZ041-046-047-076>085-087-088-021100-
...PIKES PEAK/PALMER DIVIDE AND SOUTHERN FOOTHILLS...

CITY           SKY/WX    TMP DP  RH WIND       PRES   REMARKS
COLO. SPRINGS  CLOUDY    20  19  96 S13       30.10F FOG     WCI   7
A. F. ACADEMY  CLOUDY    18  16  91 S15       30.06F WCI   4
ELLICOTT       NOT AVBL
FALCON         SNOW      19  18  96 S14       30.07F VSB 1/4 WCI   5
FORT CARSON    MOCLDY    19  18  93 S10       30.09F WCI   8
LIMON          CLOUDY    22  19  89 S17G24    30.12F WCI   8
MONUMENT HILL  CLOUDY    18  14  86 S18G24    29.99F FOG     WCI   2
TRINIDAD       CLOUDY    23  21  92 E5        30.11F FOG     WCI  17
$$

COZ042>045-048>051-090-091-021100-
...NORTHEAST COLORADO...

CITY           SKY/WX    TMP DP  RH WIND       PRES   REMARKS
GREELEY ARPT   CLOUDY    27  18  69 SE7       30.09F WCI  19
AKRON          CLOUDY    26  19  74 S18       30.13F WCI  13
BURLINGTON     PTCLDY    24  20  84 S7        30.21F WCI  16
WRAY           CLOUDY    31  20  62 S10       30.21F WCI  22
STERLING       CLOUDY    27  23  86 S6        30.16F WCI  20
HOLYOKE        NOT AVBL
FORT MORGAN    CLOUDY    27  22  81 SE9       30.14F WCI  17
$$

COZ086-089-092>099-021100-
...SOUTHEAST COLORADO...

CITY           SKY/WX    TMP DP  RH WIND       PRES   REMARKS
PUEBLO         CLOUDY    25  22  88 CALM      30.16F
LA JUNTA       CLOUDY    28  22  78 E8        30.19F WCI  20
LAMAR          CLOUDY    24  22  91 SE7       30.23F FOG     WCI  16
SPRINGFIELD      N/A     24  21  88 S13       30.22F WCI  12
$$



USA.gov is the U.S. government's official web portal to all federal, state and local government web resources and services.